This demonstration page uses our WeatherBlox Daily Observations layout. Learn more.

Left ArrowRight Arrow

Hourly Observations for October 16, 2016

Temp ( °F °C ) Dew Point ( °F °C ) Humidity (%) Winds ( mph kmh ) Pressure ( in mb ) Visibility ( mi km ) Precip ( " mm )
12:53 am 00:53 Clear 66 18.9 59 15 78 78 SE 8 13 29.83 1010 10 16 0.00 0.00
1:53 am 01:53 Clear 62 16.7 59 15 90 90 SE 8 13 29.82 1010 10 16 0.00 0.00
2:53 am 02:53 Clear 61 16.1 58 14.4 90 90 SSE 6 9 29.82 1010 10 16 0.00 0.00
3:53 am 03:53 Clear 60 15.6 57 13.9 90 90 SE 8 13 29.81 1010 10 16 0.00 0.00
4:53 am 04:53 Clear 59 15 57 13.9 93 93 SE 8 13 29.80 1009 10 16 0.00 0.00
5:53 am 05:53 Clear 57 13.9 56 13.3 96 96 SE 6 9 29.81 1010 10 16 0.00 0.00
6:53 am 06:53 Clear 52 11.1 50 10 93 93 Calm 29.84 1011 9 14 0.00 0.00
7:53 am 07:53 Clear 54 12.2 53 11.7 97 97 SE 8 13 29.85 1011 9 14 0.00 0.00
8:53 am 08:53 Sunny 59 15 56 13.3 90 90 Calm 29.87 1012 9 14 0.00 0.00
9:53 am 09:53 Sunny 67 19.4 58 14.4 73 73 SSE 5 7 29.88 1012 10 16 0.00 0.00
10:53 am 10:53 Sunny 76 24.4 52 11.1 43 43 S 6 9 29.88 1012 10 16 0.00 0.00
11:53 am 11:53 Sunny 82 27.8 44 6.7 26 26 SSW 8 13 29.86 1011 10 16 0.00 0.00
12:53 pm 12:53 Sunny 87 30.6 41 5 20 20 WSW 9 15 29.84 1010 10 16 0.00 0.00
1:53 pm 13:53 Sunny 89 31.7 41 5 19 19 W 7 11 29.82 1010 10 16 0.00 0.00
2:53 pm 14:53 Sunny 94 34.4 40 4.4 15 15 SW 15 24 29.77 1008 10 16 0.00 0.00
3:53 pm 15:53 Sunny 95 35 39 3.9 14 14 WSW 20 31 29.74 1007 10 16 0.00 0.00
4:53 pm 16:53 Sunny 95 35 39 3.9 14 14 W 14 22 29.73 1007 10 16 0.00 0.00
5:53 pm 17:53 Sunny 94 34.4 40 4.4 15 15 SW 13 20 29.72 1007 10 16 0.00 0.00
6:53 pm 18:53 Sunny 89 31.7 42 5.6 19 19 SW 7 11 29.73 1007 10 16 0.00 0.00
7:53 pm 19:53 Clear 79 26.1 43 6.1 28 28 SW 7 11 29.75 1008 10 16 0.00 0.00
8:53 pm 20:53 Clear 75 23.9 45 7.2 34 34 SW 12 19 29.77 1008 10 16 0.00 0.00
9:53 pm 21:53 Clear 71 21.7 45 7.2 39 39 WSW 8 13 29.77 1008 10 16 0.00 0.00
10:53 pm 22:53 Clear 68 20 45 7.2 44 44 SW 9 15 29.77 1008 10 16 0.00 0.00
11:53 pm 23:53 Clear 69 20.6 50 10 51 51 ESE 12 19 29.77 1008 10 16 0.00 0.00

Powered by AerisWeather